Osceola, WI

6:06 PM CDT on May 22, 2017 (GMT -0500)
Simenstad Municipal

Weather History for KOEO - February, 2013

Change the Weather History Date:

Tuesday, February 19, 2013

  Actual Average (KANE) Record (KANE)
Temperature  
Mean Temperature 6 °F -  
Max Temperature 12 °F 29 °F 60 °F (2017)
Min Temperature 1 °F 14 °F -11 °F (2015)
Degree Days  
Heating Degree Days 58    
Moisture  
Dew Point -4 °F    
Average Humidity 64    
Maximum Humidity 79    
Minimum Humidity 52    
Precipitation  
Precipitation 0.00 in - - ()
Sea Level Pressure  
Sea Level Pressure 30.07 in    
Wind  
Wind Speed 15 mph (NW)    
Max Wind Speed 22 mph    
Max Gust Speed 30 mph    
Visibility 9 miles    
Events Snow    
Averages and records for this station are not official NWS values.
T = Trace of Precipitation, MM = Missing Value Source: NWS Daily Summary

Daily Weather History Graph

Daily Weather History Graph

Search for Another Location

Airport or City:

Trip Planner

Search our weather history database for the weather conditions in past years. The results will help you decide how hot, cold, wet, or windy it might be!

Date:

Astronomy

Feb. 19, 2013 Rise Set
Actual Time 7:05 AM CST 5:44 PM CST
Civil Twilight 6:35 AM CST 6:14 PM CST
Nautical Twilight 6:01 AM CST 6:48 PM CST
Astronomical Twilight 5:26 AM CST 7:23 PM CST
Moon 12:07 PM CST (2/19) 2:46 AM CST (2/19)
Length of Visible Light 11h 39m
Length of Day
10h 38m
Waxing Gibbous, 67% of the Moon is Illuminated
Feb 19
Waxing Gibbous
Feb 25
Full
Mar 4
Last Quarter
Mar 11
New
Mar 19
First Quarter

Hourly Weather History & Observations

Time (CST) Temp. Windchill Dew Point Humidity Pressure Visibility Wind Dir Wind Speed Gust Speed Precip Events Conditions
12:15 AM 12.2 °F -3.1 °F 5.0 °F 73% 29.79 in 7.0 mi NW 13.8 mph 23.0 mph N/A Snow Light Snow
12:35 AM 10.4 °F -6.0 °F 3.2 °F 73% 29.80 in 10.0 mi NW 15.0 mph 19.6 mph N/A   Overcast
12:55 AM 10.4 °F -5.4 °F 3.2 °F 73% 29.80 in 10.0 mi NW 13.8 mph 26.5 mph N/A   Overcast
1:15 AM 10.4 °F -7.2 °F 3.2 °F 73% 29.81 in 10.0 mi NW 17.3 mph 25.3 mph N/A   Overcast
1:35 AM 10.4 °F -7.7 °F 3.2 °F 73% 29.81 in 10.0 mi WNW 18.4 mph 25.3 mph N/A   Overcast
1:55 AM 10.4 °F -4.8 °F 3.2 °F 73% 29.82 in 10.0 mi NW 12.7 mph 21.9 mph N/A   Overcast
2:15 AM 8.6 °F -10.0 °F 3.2 °F 79% 29.83 in 7.0 mi NW 18.4 mph 25.3 mph N/A Snow Light Snow
2:35 AM 8.6 °F -9.5 °F 1.4 °F 73% 29.83 in 7.0 mi NW 17.3 mph 25.3 mph N/A Snow Light Snow
2:55 AM 8.6 °F -8.9 °F 1.4 °F 73% 29.84 in 7.0 mi NW 16.1 mph 23.0 mph N/A   Overcast
3:15 AM 8.6 °F -8.9 °F 1.4 °F 73% 29.85 in 10.0 mi NW 16.1 mph 23.0 mph N/A   Overcast
3:35 AM 6.8 °F -11.8 °F 1.4 °F 79% 29.86 in 7.0 mi NW 17.3 mph 26.5 mph N/A Snow Light Snow
3:55 AM 6.8 °F -10.7 °F 1.4 °F 79% 29.87 in 7.0 mi NW 15.0 mph 25.3 mph N/A   Overcast
4:15 AM 6.8 °F -11.8 °F -0.4 °F 72% 29.87 in 7.0 mi WNW 17.3 mph 27.6 mph N/A   Overcast
4:35 AM 5.0 °F -14.2 °F -0.4 °F 78% 29.88 in 7.0 mi NW 17.3 mph 27.6 mph N/A   Mostly Cloudy
4:55 AM 5.0 °F -13.0 °F -0.4 °F 78% 29.89 in 7.0 mi NW 15.0 mph 21.9 mph N/A Snow Light Snow
5:15 AM 5.0 °F -12.3 °F -0.4 °F 78% 29.91 in 7.0 mi NW 13.8 mph 20.7 mph N/A Snow Light Snow
5:35 AM 5.0 °F -10.8 °F -0.4 °F 78% 29.91 in 7.0 mi WNW 11.5 mph 19.6 mph N/A Snow Light Snow
5:55 AM 5.0 °F -12.3 °F -2.2 °F 72% 29.92 in 10.0 mi NW 13.8 mph 21.9 mph N/A   Overcast
6:15 AM 5.0 °F -13.6 °F -2.2 °F 72% 29.93 in 7.0 mi NW 16.1 mph 24.2 mph N/A   Overcast
6:35 AM 3.2 °F -16.5 °F -4.0 °F 72% 29.94 in 7.0 mi NW 17.3 mph 27.6 mph N/A   Mostly Cloudy
6:55 AM 3.2 °F -16.5 °F -4.0 °F 72% 29.95 in 10.0 mi WNW 17.3 mph 24.2 mph N/A   Mostly Cloudy
7:15 AM 3.2 °F -16.5 °F -5.8 °F 66% 29.97 in 10.0 mi NW 17.3 mph 26.5 mph N/A   Scattered Clouds
7:35 AM 3.2 °F -17.6 °F -5.8 °F 66% 29.98 in 10.0 mi NW 19.6 mph 27.6 mph N/A   Clear
7:55 AM 3.2 °F -13.1 °F -5.8 °F 66% 30.00 in 10.0 mi NW 11.5 mph 18.4 mph N/A   Clear
8:15 AM 3.2 °F -14.6 °F -5.8 °F 66% 30.00 in 10.0 mi NW 13.8 mph 19.6 mph N/A   Clear
8:35 AM 3.2 °F -14.6 °F -5.8 °F 66% 30.01 in 10.0 mi NW 13.8 mph 23.0 mph N/A   Scattered Clouds
8:55 AM 3.2 °F -13.1 °F -5.8 °F 66% 30.02 in 10.0 mi NW 11.5 mph 20.7 mph N/A   Scattered Clouds
9:15 AM 3.2 °F -16.5 °F -5.8 °F 66% 30.03 in 10.0 mi WNW 17.3 mph 26.5 mph N/A   Scattered Clouds
9:35 AM 3.2 °F -18.6 °F -7.6 °F 61% 30.04 in 5.0 mi WNW 21.9 mph 29.9 mph N/A   Haze
9:55 AM 3.2 °F -16.5 °F -7.6 °F 61% 30.05 in 10.0 mi NW 17.3 mph 26.5 mph N/A   Clear
10:15 AM 3.2 °F -17.1 °F -7.6 °F 61% 30.06 in 10.0 mi NNW 18.4 mph 24.2 mph N/A   Clear
10:35 AM 3.2 °F -15.9 °F -7.6 °F 61% 30.06 in 10.0 mi NW 16.1 mph 25.3 mph N/A   Clear
10:55 AM 3.2 °F -16.5 °F -5.8 °F 66% 30.07 in 10.0 mi NW 17.3 mph 25.3 mph N/A   Clear
11:15 AM 5.0 °F -14.2 °F -5.8 °F 61% 30.07 in 10.0 mi WNW 17.3 mph 25.3 mph N/A   Clear
11:35 AM 5.0 °F -13.0 °F -5.8 °F 61% 30.08 in 7.0 mi NW 15.0 mph 25.3 mph N/A   Clear
11:55 AM 6.8 °F -11.8 °F -4.0 °F 61% 30.08 in 10.0 mi WNW 17.3 mph 23.0 mph N/A   Clear
12:15 PM 8.6 °F -9.5 °F -4.0 °F 57% 30.09 in 10.0 mi NW 17.3 mph 26.5 mph N/A   Clear
12:35 PM 8.6 °F -7.0 °F -4.0 °F 57% 30.09 in 10.0 mi NW 12.7 mph 24.2 mph N/A   Clear
12:55 PM 10.4 °F -6.6 °F -4.0 °F 52% 30.09 in 10.0 mi WNW 16.1 mph 25.3 mph N/A   Clear
1:15 PM 10.4 °F -7.7 °F -4.0 °F 52% 30.09 in 10.0 mi NNW 18.4 mph 27.6 mph N/A   Clear
1:35 PM 10.4 °F -6.6 °F -4.0 °F 52% 30.10 in 10.0 mi NW 16.1 mph 28.8 mph N/A   Clear
1:55 PM 10.4 °F -6.0 °F -4.0 °F 52% 30.10 in 10.0 mi WNW 15.0 mph 21.9 mph N/A   Clear
2:15 PM 10.4 °F -6.6 °F -4.0 °F 52% 30.11 in 10.0 mi NW 16.1 mph 24.2 mph N/A   Clear
2:35 PM 10.4 °F -8.2 °F -2.2 °F 57% 30.11 in 10.0 mi NW 19.6 mph 27.6 mph N/A   Clear
3:15 PM 10.4 °F -7.2 °F -4.0 °F 52% 30.14 in 10.0 mi NW 17.3 mph 25.3 mph N/A   Clear
3:35 PM 10.4 °F -5.4 °F -4.0 °F 52% 30.16 in 10.0 mi NW 13.8 mph 23.0 mph N/A   Clear
3:55 PM 10.4 °F -6.6 °F -4.0 °F 52% 30.17 in 10.0 mi NW 16.1 mph 21.9 mph N/A   Clear
4:15 PM 10.4 °F -6.0 °F -4.0 °F 52% 30.18 in 10.0 mi WNW 15.0 mph 25.3 mph N/A   Clear
4:35 PM 10.4 °F -5.4 °F -4.0 °F 52% 30.18 in 10.0 mi WNW 13.8 mph 18.4 mph N/A   Clear
4:55 PM 8.6 °F -9.5 °F -5.8 °F 52% 30.19 in 10.0 mi NW 17.3 mph 25.3 mph N/A   Clear
5:15 PM 8.6 °F -7.0 °F -5.8 °F 52% 30.20 in 10.0 mi NW 12.7 mph 21.9 mph N/A   Clear
6:35 PM 5.0 °F -10.8 °F -5.8 °F 61% 30.25 in 10.0 mi NW 11.5 mph 16.1 mph N/A   Clear
6:55 PM 5.0 °F -11.6 °F -5.8 °F 61% 30.25 in 10.0 mi NW 12.7 mph 18.4 mph N/A   Clear
7:15 PM 5.0 °F -10.8 °F -7.6 °F 56% 30.26 in 10.0 mi WNW 11.5 mph - N/A   Clear
7:35 PM 5.0 °F -9.1 °F -7.6 °F 56% 30.27 in 10.0 mi NW 9.2 mph - N/A   Clear
7:55 PM 3.2 °F -12.2 °F -7.6 °F 61% 30.28 in 10.0 mi WNW 10.4 mph - N/A   Clear
8:15 PM 3.2 °F -11.3 °F -7.6 °F 61% 30.28 in 10.0 mi NW 9.2 mph - N/A   Clear
8:35 PM 3.2 °F -10.3 °F -7.6 °F 61% 30.29 in 10.0 mi WNW 8.1 mph - N/A   Clear
8:55 PM 3.2 °F -9.1 °F -7.6 °F 61% 30.30 in 10.0 mi WNW 6.9 mph - N/A   Clear
9:15 PM 3.2 °F -9.1 °F -7.6 °F 61% 30.31 in 10.0 mi WNW 6.9 mph - N/A   Clear
9:35 PM 3.2 °F -7.8 °F -7.6 °F 61% 30.31 in 10.0 mi NW 5.8 mph - N/A   Clear
9:55 PM 3.2 °F -10.3 °F -7.6 °F 61% 30.31 in 10.0 mi NNW 8.1 mph - N/A   Clear
10:15 PM 3.2 °F -7.8 °F -7.6 °F 61% 30.32 in 10.0 mi NNW 5.8 mph - N/A   Clear
10:35 PM 1.4 °F -12.5 °F -7.6 °F 66% 30.32 in 10.0 mi NNW 8.1 mph - N/A   Clear
10:55 PM 1.4 °F -9.9 °F -7.6 °F 66% 30.33 in 10.0 mi NNW 5.8 mph - N/A   Clear
11:15 PM 1.4 °F -12.5 °F -7.6 °F 66% 30.33 in 10.0 mi NNW 8.1 mph - N/A   Clear
11:35 PM 1.4 °F -9.9 °F -7.6 °F 66% 30.34 in 10.0 mi NW 5.8 mph - N/A   Clear
11:55 PM 1.4 °F -11.3 °F -7.6 °F 66% 30.35 in 10.0 mi NW 6.9 mph - N/A   Clear